Columbia Airport, CA

2:53 PM PDT on October 18, 2019 (GMT -0700)
Columbia Airport

Weather History for KO22 - July, 2019

Change the Weather History Date:

Saturday, July 27, 2019

  Actual Average (WUND) Record (WUND)
Temperature  
Mean Temperature 83 °F -  
Max Temperature 100 °F - - (-1)
Min Temperature 66 °F - - (-1)
Cooling Degree Days 18    
Growing Degree Days 33 (Base 50)    
Moisture  
Dew Point 53 °F    
Average Humidity 38    
Maximum Humidity 68    
Minimum Humidity 17    
Precipitation  
Precipitation 0.00 in - - ()
Sea Level Pressure  
Sea Level Pressure 30.07 in    
Wind  
Wind Speed 2 mph (SW)    
Max Wind Speed 9 mph    
Max Gust Speed 15 mph    
Visibility 10 miles    
Events      
Averages and records for this station are not official NWS values.
T = Trace of Precipitation, MM = Missing Value Source: NWS Daily Summary

Daily Weather History Graph

Daily Weather History Graph

Search for Another Location

Airport or City:

Astronomy

Jul. 27, 2019 Rise Set
Actual Time 6:00 AM PDT 8:15 PM PDT
Civil Twilight 5:30 AM PDT 8:45 PM PDT
Nautical Twilight 4:54 AM PDT 9:21 PM PDT
Astronomical Twilight 4:14 AM PDT 10:01 PM PDT
Moon 1:48 AM PDT (7/27) 4:12 PM PDT (7/27)
Length of Visible Light 15h 14m
Length of Day
14h 15m
Waning Crescent, 23% of the Moon is Illuminated
Jul 27
Waning Crescent
Jul 31
New
Aug 7
First Quarter
Aug 15
Full
Aug 23
Last Quarter

Hourly Weather History & Observations

Time (PDT) Temp. Heat Index Dew Point Humidity Pressure Visibility Wind Dir Wind Speed Gust Speed Precip Events Conditions
12:15 AM 69.8 °F - 53.6 °F 56% 30.07 in 10.0 mi Calm Calm - N/A   Clear
12:35 AM 69.8 °F - 53.6 °F 56% 30.07 in 10.0 mi Variable 3.5 mph - N/A   Clear
12:55 AM 69.8 °F - 53.6 °F 56% 30.07 in 10.0 mi Calm Calm - N/A   Clear
1:15 AM 68.0 °F - 53.6 °F 60% 30.07 in 10.0 mi Calm Calm - N/A   Clear
1:35 AM 68.0 °F - 53.6 °F 60% 30.07 in 10.0 mi Calm Calm - N/A   Clear
1:55 AM 69.8 °F - 53.6 °F 56% 30.07 in 10.0 mi Calm Calm - N/A   Clear
2:15 AM 68.0 °F - 53.6 °F 60% 30.07 in 10.0 mi Calm Calm - N/A   Clear
2:35 AM 68.0 °F - 53.6 °F 60% 30.07 in 10.0 mi Calm Calm - N/A   Clear
2:55 AM 68.0 °F - 53.6 °F 60% 30.07 in 10.0 mi Calm Calm - N/A   Clear
3:15 AM 66.2 °F - 53.6 °F 64% 30.06 in 10.0 mi Calm Calm - N/A   Clear
3:35 AM 66.2 °F - 53.6 °F 64% 30.07 in 10.0 mi Calm Calm - N/A   Clear
3:55 AM 68.0 °F - 53.6 °F 60% 30.07 in 10.0 mi Calm Calm - N/A   Clear
4:15 AM 66.2 °F - 53.6 °F 64% 30.06 in 10.0 mi Calm Calm - N/A   Clear
4:35 AM 66.2 °F - 53.6 °F 64% 30.06 in 10.0 mi Calm Calm - N/A   Clear
4:55 AM 68.0 °F - 53.6 °F 60% 30.07 in 10.0 mi Calm Calm - N/A   Clear
5:15 AM 68.0 °F - 53.6 °F 60% 30.07 in 10.0 mi Calm Calm - N/A   Clear
5:35 AM 66.2 °F - 53.6 °F 64% 30.07 in 10.0 mi Calm Calm - N/A   Clear
5:55 AM 66.2 °F - 53.6 °F 64% 30.08 in 10.0 mi Calm Calm - N/A   Clear
6:15 AM 66.2 °F - 53.6 °F 64% 30.08 in 10.0 mi Calm Calm - N/A   Clear
6:35 AM 66.2 °F - 55.4 °F 68% 30.09 in 10.0 mi Calm Calm - N/A   Clear
6:55 AM 68.0 °F - 55.4 °F 64% 30.09 in 10.0 mi Calm Calm - N/A   Clear
7:15 AM 71.6 °F - 57.2 °F 60% 30.09 in 10.0 mi Calm Calm - N/A   Clear
7:35 AM 73.4 °F - 57.2 °F 57% 30.10 in 10.0 mi Calm Calm - N/A   Clear
7:55 AM 77.0 °F - 59.0 °F 54% 30.10 in 10.0 mi Calm Calm - N/A   Clear
8:15 AM 80.6 °F 81.5 °F 60.8 °F 51% 30.10 in 10.0 mi Calm Calm - N/A   Clear
8:35 AM 84.2 °F 83.8 °F 59.0 °F 42% 30.11 in 10.0 mi Calm Calm - N/A   Clear
8:55 AM 86.0 °F 84.9 °F 57.2 °F 37% 30.11 in 10.0 mi Calm Calm - N/A   Clear
9:15 AM 87.8 °F 86.5 °F 57.2 °F 35% 30.11 in 10.0 mi Calm Calm - N/A   Clear
9:35 AM 89.6 °F 87.7 °F 55.4 °F 31% 30.11 in 10.0 mi South 3.5 mph - N/A   Clear
9:55 AM 91.4 °F 89.4 °F 55.4 °F 29% 30.11 in 10.0 mi South 3.5 mph - N/A   Clear
10:15 AM 91.4 °F 89.4 °F 55.4 °F 29% 30.11 in 9.0 mi South 3.5 mph - N/A   Clear
10:35 AM 93.2 °F 90.8 °F 53.6 °F 26% 30.11 in 10.0 mi SSE 3.5 mph - N/A   Clear
10:55 AM 93.2 °F 90.8 °F 53.6 °F 26% 30.11 in 10.0 mi SSW 4.6 mph - N/A   Clear
11:15 AM 93.2 °F 90.8 °F 53.6 °F 26% 30.11 in 10.0 mi Variable 3.5 mph - N/A   Clear
11:35 AM 95.0 °F 92.7 °F 53.6 °F 25% 30.11 in 10.0 mi Calm Calm - N/A   Clear
11:55 AM 96.8 °F 95.1 °F 55.4 °F 25% 30.10 in 10.0 mi Variable 5.8 mph - N/A   Clear
12:15 PM 96.8 °F 94.4 °F 53.6 °F 23% 30.10 in 10.0 mi Variable 6.9 mph - N/A   Clear
12:35 PM 98.6 °F - 51.8 °F 21% 30.09 in 10.0 mi Variable 3.5 mph - N/A   Clear
12:55 PM 98.6 °F - 50.0 °F 19% 30.09 in 10.0 mi SW 4.6 mph - N/A   Clear
1:15 PM 98.6 °F - 46.4 °F 17% 30.09 in 10.0 mi West 5.8 mph - N/A   Clear
1:55 PM 100.4 °F - 48.2 °F 17% 30.08 in 10.0 mi SW 8.1 mph - N/A   Clear
2:15 PM 98.6 °F - 50.0 °F 19% 30.07 in 10.0 mi WSW 8.1 mph - N/A   Clear
2:35 PM 100.4 °F - 50.0 °F 18% 30.07 in 10.0 mi WSW 5.8 mph - N/A   Clear
2:55 PM 100.4 °F - 48.2 °F 17% 30.07 in 10.0 mi SW 9.2 mph 15.0 mph N/A   Clear
3:15 PM 100.4 °F - 48.2 °F 17% 30.06 in 10.0 mi South 4.6 mph - N/A   Clear
3:35 PM 100.4 °F - 48.2 °F 17% 30.05 in 10.0 mi SW 5.8 mph - N/A   Clear
3:55 PM 100.4 °F - 48.2 °F 17% 30.05 in 10.0 mi SW 8.1 mph - N/A   Clear
4:15 PM 100.4 °F - 50.0 °F 18% 30.05 in 10.0 mi SW 5.8 mph - N/A   Clear
4:35 PM 100.4 °F - 50.0 °F 18% 30.04 in 10.0 mi SW 6.9 mph 13.8 mph N/A   Clear
4:55 PM 98.6 °F - 50.0 °F 19% 30.04 in 10.0 mi West 8.1 mph - N/A   Clear
5:15 PM 98.6 °F - 50.0 °F 19% 30.04 in 10.0 mi West 6.9 mph - N/A   Clear
5:35 PM 98.6 °F - 51.8 °F 21% 30.03 in 10.0 mi WNW 8.1 mph - N/A   Clear
5:55 PM 98.6 °F - 50.0 °F 19% 30.03 in 10.0 mi Variable 6.9 mph - N/A   Clear
6:15 PM 96.8 °F - 50.0 °F 20% 30.03 in 10.0 mi West 6.9 mph - N/A   Clear
6:35 PM 96.8 °F - 50.0 °F 20% 30.03 in 10.0 mi Variable 5.8 mph - N/A   Clear
6:55 PM 96.8 °F - 50.0 °F 20% 30.03 in 10.0 mi Variable 4.6 mph - N/A   Clear
7:15 PM 95.0 °F - 50.0 °F 22% 30.03 in 10.0 mi Variable 3.5 mph - N/A   Clear
7:35 PM 93.2 °F - 48.2 °F 21% 30.03 in 10.0 mi Variable 4.6 mph - N/A   Clear
7:55 PM 91.4 °F - 48.2 °F 23% 30.03 in 10.0 mi Calm Calm - N/A   Clear
8:15 PM 87.8 °F - 48.2 °F 25% 30.03 in 10.0 mi Calm Calm - N/A   Clear